Home   Weather   Damascus   Past weeks

Flag for Syria Past Weather in Damascus, Syria — Yesterday and Last 2 Weeks

Now
84 °F

Sunny.


Feels Like: 81 °F
Forecast: 46 / 83 °F
Wind: 5 mph from Southwest

Location: Damascus Int. Airport

Current Time: Sep 30, 2016 at 1:13:20 PM

Latest Report: Sep 30, 2016 at 1:00 PM


Visibility: 10 mi

Pressure: 30.04 "Hg (27.79 "Hg at 689m altitude)

Humidity: 14%

Dew Point: 30 °F

Location of DamascusLocation

Past Weather in Damascus — Graph

°F

Damascus Temperature Yesterday

Maximum temperature yesterday: 86 °F (at 4:00 PM)
Minimum temperature yesterday: 52 °F (at 7:00 AM)
Average temperature yesterday: 70 °F

High & Low Weather Summary for the Past Weeks

 TemperatureHumidityPressure
High95 °F (Sep 20, 4:00 PM)83% (Sep 23, 7:00 AM)30.15 "Hg (Sep 23, 7:00 AM)
Low52 °F (Sep 29, 7:00 AM)10% (Sep 20, 4:00 PM)29.83 "Hg (Sep 25, 5:00 PM)
Average74 °F43%29.98 "Hg
* Reported Sep 17 3:00 PM — Sep 30 12:00 PM, Damascus, Weather by CustomWeather, © 2016

Note: Actual official high and low records may vary slightly from our data, if they occured in-between our weather recording intervals... More about our weather records

Advertising

Damascus Weather History for the Previous 24 Hours

Scroll right to see more
 ConditionsComfort  
Time TempWeatherWind HumidityBarometerVisibility
12:00 PM
Fri, Sep 30
81 °FSunny.5 mph18%30.07 "Hg10 mi
11:00 AM77 °FSunny.5 mph24%30.07 "Hg10 mi
10:00 AM72 °FSunny.2 mph33%30.07 "Hg10 mi
9:00 AM66 °FSunny.2 mph40%30.04 "Hg10 mi
8:00 AM59 °FSunny.2 mph42%30.04 "Hg10 mi
7:00 AM52 °FSunny.6 mph50%30.04 "Hg10 mi
6:00 AM52 °FClear.5 mph50%30.04 "Hg10 mi
5:00 AM54 °FClear.2 mph51%30.04 "Hg10 mi
4:00 AM55 °FClear.5 mph44%30.04 "Hg10 mi
3:00 AM55 °FClear.7 mph47%30.04 "Hg10 mi
2:00 AM59 °FClear.5 mph42%30.04 "Hg10 mi
1:00 AM64 °FClear.7 mph37%30.04 "Hg10 mi
12:00 AM64 °FClear.5 mph43%30.04 "Hg10 mi
11:00 PM
Thu, Sep 29
68 °FClear.7 mph33%30.04 "Hg10 mi
10:00 PM68 °FClear.7 mph33%30.04 "Hg10 mi
9:00 PM72 °FClear.9 mph33%30.01 "Hg10 mi
8:00 PM75 °FClear.9 mph29%30.01 "Hg10 mi
7:00 PM79 °FClear.14 mph24%29.98 "Hg10 mi
6:00 PM84 °FSunny.16 mph22%29.98 "Hg10 mi
5:00 PM86 °FSunny.14 mph19%30.01 "Hg10 mi
4:00 PM86 °FSunny.9 mph22%30.01 "Hg10 mi
3:00 PM84 °FSunny.7 mph23%30.04 "Hg10 mi
2:00 PM82 °FSunny.5 mph23%30.07 "Hg10 mi
1:00 PM82 °FSunny.2 mph23%30.09 "Hg10 mi
Weather by CustomWeather, © 2016

See weather overviewHow to use our weather pages